Find OneWeb SL0584

NORAD ID: 54651 Int'l Des: 2022-166 Owner: ONEWEBN Country: UK Constellation: oneweb operational
LEOCIRCULARPOLARONEWEB_TYPE

Live Position

Loading 3D Globe...

About OneWeb SL0584

Description loading...

Upcoming Passes

Passes for default location (London). Set your location on the main map for personalized predictions.

Altitude History

Loading altitude history...

Two-Line Element Set

1 54651U 22166K 26120.92860379 .00000114 00000-0 24375-3 0 9993
2 54651 87.9220 253.3919 0001922 106.8365 253.2980 13.21823854165273
Epoch: Apr 30, 2026 • Age: 10 hours

Current Status

Altitude 1180.7 km
Velocity 7.26 km/s
Sub-Earth Point -2.31°S, 89.78°E
Launch Date Dec 8, 2022
Age 3.3 years
Type internet

Technical Details

Classification Payload
Mass 148.00 kg
Dry Mass 140.00 kg
Total Mass 148.00 kg
Length 1.30 m
Diameter 1.00 m
Span 5.00 m
Shape Trapezoid+2 pan
Manufacturer ONEWUS
Bus Type ARROW
Phase Status In Orbit
Owner/State ONEWEBN/UK

Most Searched